Location: Beddau
(51.5575°N, 3.3561°W)
Time: 16:37:30
(UTC+00:00)

MOS 1 - Pass Details

Date: 03 March 2021
Orbit: 878 x 892 km, 99.1° (Epoch: 13 April)

Event Time Altitude Azimuth Distance (km) Brightness Sun altitude
Exits shadow 19:26:01 12° 138° (SE) 2,413 6.1 -14.5°
Maximum altitude 19:31:06 50° 65° (ENE) 1,117 4.5 -15.3°
Drops below altitude 10° 19:36:35 10° 352° (N) 2,559 6.9 -16.1°
Sets 19:39:02 0° 348° (NNW) 3,500 7.7 -16.5°
